• Em Portugal
  • Lista de países
  • Para 7 dias
  • Temperatura da água
  • Mapas de satélite
  • Mapa do tempo
  • Widgets de tempo
  • user-avatar
    Iniciar Sessão

    Previsão horária em Tsumeb

    Hoje, 16 Dezembro, Sábado

    Tempo Temperatura Precipitação Vento Pressão Humidade
    00:00 +28°C° 0 mm 3 m/s 654 mmHg 42%
    01:00 +28°C° 0 mm 2 m/s 654 mmHg 43%
    02:00 +28°C° 0,1 mm 2 m/s 654 mmHg 43%
    03:00 +28°C° 0,1 mm 2 m/s 654 mmHg 43%
    04:00 +28°C° 0,1 mm 2 m/s 654 mmHg 42%
    05:00 +28°C° 0 mm 2 m/s 654 mmHg 41%
    06:00 +29°C° 0 mm 3 m/s 655 mmHg 39%
    07:00 +30°C° 0 mm 3 m/s 655 mmHg 37%
    08:00 +32°C° 0 mm 4 m/s 655 mmHg 34%
    09:00 +34°C° 0 mm 5 m/s 656 mmHg 32%
    10:00 +35°C° 0 mm 6 m/s 656 mmHg 29%
    11:00 +35°C° 0 mm 5 m/s 655 mmHg 29%
    12:00 +35°C° 0 mm 5 m/s 655 mmHg 29%
    13:00 +35°C° 0 mm 4 m/s 654 mmHg 29%
    14:00 +35°C° 0 mm 4 m/s 654 mmHg 28%
    15:00 +35°C° 0 mm 3 m/s 654 mmHg 27%
    16:00 +35°C° 0 mm 3 m/s 653 mmHg 27%
    17:00 +34°C° 0 mm 3 m/s 653 mmHg 28%
    18:00 +32°C° 0 mm 2 m/s 653 mmHg 29%
    19:00 +32°C° 0 mm 2 m/s 653 mmHg 31%
    20:00 +31°C° 0 mm 2 m/s 653 mmHg 32%
    21:00 +30°C° 0 mm 2 m/s 654 mmHg 34%
    22:00 +30°C° 0 mm 3 m/s 654 mmHg 35%
    23:00 +29°C° 0 mm 3 m/s 654 mmHg 39%

    Amanhã, 17 Dezembro, Domingo

    Tempo Temperatura Precipitação Vento Pressão Humidade
    00:00 +28°C° 0 mm 3 m/s 653 mmHg 43%
    01:00 +28°C° 0 mm 3 m/s 653 mmHg 46%
    02:00 +27°C° 0,4 mm 3 m/s 653 mmHg 50%
    03:00 +27°C° 0,4 mm 3 m/s 653 mmHg 54%
    04:00 +26°C° 0,4 mm 3 m/s 653 mmHg 58%
    05:00 +26°C° 0,3 mm 2 m/s 653 mmHg 58%
    06:00 +27°C° 0,3 mm 2 m/s 654 mmHg 57%
    07:00 +27°C° 0,3 mm 2 m/s 654 mmHg 57%
    08:00 +28°C° 0,2 mm 3 m/s 655 mmHg 51%
    09:00 +30°C° 0,2 mm 3 m/s 655 mmHg 46%
    10:00 +32°C° 0,2 mm 4 m/s 655 mmHg 41%
    11:00 +31°C° 0 mm 3 m/s 655 mmHg 40%
    12:00 +31°C° 0 mm 3 m/s 654 mmHg 38%
    13:00 +31°C° 0 mm 2 m/s 653 mmHg 37%
    14:00 +32°C° 0 mm 2 m/s 653 mmHg 37%
    15:00 +32°C° 0 mm 2 m/s 653 mmHg 37%
    16:00 +32°C° 0 mm 2 m/s 652 mmHg 36%
    17:00 +31°C° 0 mm 2 m/s 652 mmHg 38%
    18:00 +30°C° 0 mm 2 m/s 652 mmHg 40%
    19:00 +29°C° 0 mm 2 m/s 652 mmHg 42%
    20:00 +29°C° 0 mm 2 m/s 653 mmHg 44%
    21:00 +28°C° 0 mm 2 m/s 653 mmHg 46%
    22:00 +28°C° 0 mm 2 m/s 654 mmHg 47%
    23:00 +27°C° 0 mm 2 m/s 653 mmHg 50%

    Depois de amanhã, 18 Dezembro, Segunda-feira

    Tempo Temperatura Precipitação Vento Pressão Humidade
    00:00 +27°C° 0 mm 2 m/s 653 mmHg 53%
    01:00 +26°C° 0 mm 2 m/s 652 mmHg 56%
    02:00 +26°C° 0,3 mm 2 m/s 652 mmHg 60%
    03:00 +25°C° 0,3 mm 3 m/s 652 mmHg 64%
    04:00 +24°C° 0,3 mm 3 m/s 652 mmHg 69%
    05:00 +25°C° 0,1 mm 3 m/s 652 mmHg 66%
    06:00 +26°C° 0,1 mm 2 m/s 653 mmHg 63%
    07:00 +26°C° 0,1 mm 2 m/s 653 mmHg 60%
    08:00 +28°C° 0,1 mm 2 m/s 654 mmHg 52%
    09:00 +30°C° 0,1 mm 2 m/s 654 mmHg 45%
    10:00 +32°C° 0,1 mm 1 m/s 655 mmHg 38%
    11:00 +32°C° 0 mm 1 m/s 654 mmHg 37%
    12:00 +32°C° 0 mm 1 m/s 653 mmHg 36%
    13:00 +32°C° 0 mm 2 m/s 653 mmHg 35%
    14:00 +32°C° 0,1 mm 2 m/s 652 mmHg 37%
    15:00 +31°C° 0,1 mm 2 m/s 652 mmHg 39%
    16:00 +31°C° 0,1 mm 2 m/s 651 mmHg 41%
    17:00 +29°C° 0,8 mm 3 m/s 651 mmHg 47%
    18:00 +28°C° 0,8 mm 4 m/s 651 mmHg 53%
    19:00 +27°C° 0,8 mm 5 m/s 651 mmHg 59%
    20:00 +26°C° 1,3 mm 4 m/s 651 mmHg 62%
    21:00 +25°C° 1,3 mm 4 m/s 652 mmHg 65%
    22:00 +25°C° 1,3 mm 3 m/s 652 mmHg 67%
    23:00 +24°C° 0,7 mm 3 m/s 652 mmHg 68%

    19 Dezembro, Terça-feira

    Tempo Temperatura Precipitação Vento Pressão Humidade
    00:00 +24°C° 0,7 mm 3 m/s 651 mmHg 69%
    01:00 +24°C° 0,7 mm 2 m/s 651 mmHg 70%
    02:00 +24°C° 0,1 mm 2 m/s 651 mmHg 69%
    03:00 +24°C° 0,1 mm 2 m/s 651 mmHg 68%
    04:00 +24°C° 0,1 mm 1 m/s 651 mmHg 67%
    05:00 +25°C° 0 mm 1 m/s 651 mmHg 63%
    06:00 +26°C° 0 mm 2 m/s 652 mmHg 59%
    07:00 +26°C° 0 mm 2 m/s 652 mmHg 55%
    08:00 +28°C° 0 mm 1 m/s 652 mmHg 50%
    09:00 +29°C° 0 mm 1 m/s 653 mmHg 44%
    10:00 +29°C° 0 mm 0 m/s 653 mmHg 39%
    11:00 +32°C° 0 mm 1 m/s 652 mmHg 36%
    12:00 +32°C° 0 mm 2 m/s 652 mmHg 34%
    13:00 +34°C° 0 mm 2 m/s 651 mmHg 31%
    14:00 +34°C° 0 mm 2 m/s 651 mmHg 32%
    15:00 +34°C° 0 mm 2 m/s 650 mmHg 33%
    16:00 +32°C° 0 mm 2 m/s 650 mmHg 33%
    17:00 +31°C° 0 mm 3 m/s 650 mmHg 36%
    18:00 +30°C° 0 mm 3 m/s 650 mmHg 39%
    19:00 +29°C° 0 mm 4 m/s 651 mmHg 42%
    20:00 +29°C° 0,1 mm 3 m/s 651 mmHg 46%
    21:00 +28°C° 0,1 mm 3 m/s 651 mmHg 49%
    22:00 +27°C° 0,1 mm 2 m/s 652 mmHg 53%
    23:00 +27°C° 0 mm 2 m/s 652 mmHg 52%

    20 Dezembro, Quarta-feira

    Tempo Temperatura Precipitação Vento Pressão Humidade
    00:00 +27°C° 0 mm 3 m/s 651 mmHg 51%
    01:00 +26°C° 0 mm 4 m/s 651 mmHg 50%
    02:00 +26°C° 0,1 mm 3 m/s 651 mmHg 51%
    03:00 +25°C° 0,1 mm 3 m/s 651 mmHg 51%
    04:00 +24°C° 0,1 mm 2 m/s 651 mmHg 52%
    05:00 +25°C° 0 mm 2 m/s 652 mmHg 50%
    06:00 +25°C° 0 mm 2 m/s 652 mmHg 48%
    07:00 +25°C° 0 mm 2 m/s 652 mmHg 46%
    08:00 +26°C° 0 mm 2 m/s 653 mmHg 41%
    09:00 +28°C° 0 mm 3 m/s 653 mmHg 36%
    10:00 +29°C° 0 mm 3 m/s 653 mmHg 31%
    11:00 +29°C° 0 mm 3 m/s 652 mmHg 32%
    12:00 +30°C° 0 mm 4 m/s 652 mmHg 33%
    13:00 +30°C° 0 mm 4 m/s 651 mmHg 35%
    14:00 +32°C° 0 mm 4 m/s 651 mmHg 34%
    15:00 +32°C° 0 mm 4 m/s 651 mmHg 34%
    16:00 +32°C° 0 mm 4 m/s 651 mmHg 33%
    17:00 +30°C° 0,1 mm 3 m/s 651 mmHg 37%
    18:00 +29°C° 0,1 mm 3 m/s 652 mmHg 41%
    19:00 +28°C° 0,1 mm 2 m/s 652 mmHg 45%
    20:00 +28°C° 0,4 mm 2 m/s 652 mmHg 50%
    21:00 +27°C° 0,4 mm 3 m/s 652 mmHg 55%
    22:00 +26°C° 0,4 mm 3 m/s 653 mmHg 60%
    23:00 +25°C° 0,2 mm 3 m/s 652 mmHg 65%

    21 Dezembro, Quinta-feira

    Tempo Temperatura Precipitação Vento Pressão Humidade
    00:00 +25°C° 0,2 mm 3 m/s 652 mmHg 69%
    01:00 +24°C° 0,2 mm 3 m/s 652 mmHg 74%
    02:00 +24°C° 0,5 mm 2 m/s 652 mmHg 74%
    03:00 +24°C° 0,5 mm 2 m/s 652 mmHg 75%
    04:00 +23°C° 0,5 mm 1 m/s 652 mmHg 75%
    05:00 +24°C° 0,1 mm 1 m/s 652 mmHg 72%
    06:00 +24°C° 0,1 mm 2 m/s 653 mmHg 69%
    07:00 +25°C° 0,1 mm 2 m/s 653 mmHg 66%
    08:00 +26°C° 0,3 mm 2 m/s 653 mmHg 61%
    09:00 +27°C° 0,3 mm 2 m/s 653 mmHg 57%
    10:00 +28°C° 0,3 mm 2 m/s 653 mmHg 52%
    11:00 +27°C° 0,6 mm 3 m/s 653 mmHg 54%
    12:00 +27°C° 0,6 mm 3 m/s 652 mmHg 56%
    13:00 +26°C° 0,6 mm 3 m/s 651 mmHg 58%
    14:00 +28°C° 0 mm 3 m/s 651 mmHg 53%
    15:00 +29°C° 0 mm 3 m/s 651 mmHg 48%
    16:00 +30°C° 0 mm 2 m/s 652 mmHg 44%
    17:00 +29°C° 0,1 mm 2 m/s 652 mmHg 47%
    18:00 +28°C° 0,1 mm 2 m/s 652 mmHg 50%
    19:00 +27°C° 0,1 mm 2 m/s 652 mmHg 53%
    20:00 +26°C° 0,1 mm 2 m/s 652 mmHg 54%
    21:00 +26°C° 0,1 mm 1 m/s 652 mmHg 55%
    22:00 +26°C° 0,1 mm 1 m/s 652 mmHg 56%
    23:00 +25°C° 0 mm 2 m/s 652 mmHg 57%
    Mostrar mais